Weather History for KCQT - January, 2013

Change the Weather History Date:

Thursday, January 17, 2013

  Actual Average Record
Temperature  
Mean Temperature 60 °F 58 °F  
Max Temperature 78 °F 68 °F 90 °F (1971)
Min Temperature 42 °F 48 °F 34 °F (1888)
Degree Days  
Heating Degree Days 5 7  
Month to date heating degree days 202 125  
Since 1 July heating degree days 513 490  
Cooling Degree Days 0 0  
Month to date cooling degree days 0 0  
Year to date cooling degree days 0 0  
Growing Degree Days 10 (Base 50)    
Moisture  
Dew Point 25 °F    
Average Humidity 43    
Maximum Humidity 76    
Minimum Humidity 9    
Precipitation  
Precipitation 0.00 in 0.11 in 2.74 in (1973)
Month to date precipitation 0.15 1.76  
Year to date precipitation 0.15 1.76  
Since 1 July precipitation 3.37 6.08  
Sea Level Pressure  
Sea Level Pressure 30.11 in    
Wind  
Wind Speed 1 mph (NW)    
Max Wind Speed 5 mph    
Max Gust Speed 8 mph    
Visibility 10 miles    
Events      
T = Trace of Precipitation, MM = Missing Value Source: NWS Daily Summary

Daily Weather History Graph

Daily Weather History Graph

Search for Another Location

Airport or City:

Trip Planner

Search our weather history database for the weather conditions in past years. The results will help you decide how hot, cold, wet, or windy it might be!

Date:

Astronomy

Jan. 17, 2013 Rise Set
Actual Time 6:57 AM PST 5:09 PM PST
Civil Twilight 6:30 AM PST 5:36 PM PST
Nautical Twilight 6:00 AM PST 6:06 PM PST
Astronomical Twilight 5:30 AM PST 6:36 PM PST
Moon 10:27 AM PST (1/17) 11:43 PM PST (1/17)
Length of Visible Light 11h 05m
Length of Day
10h 11m
Waxing Crescent, 39% of the Moon is Illuminated
Jan 17
Waxing Crescent
Jan 18
First Quarter
Jan 26
Full
Feb 3
Last Quarter
Feb 9
New

Hourly Weather History & Observations

Time (PST) Temp. Dew Point Humidity Pressure Visibility Wind Dir Wind Speed Gust Speed Precip Events Conditions
12:47 AM 45.0 °F 37.0 °F 74% 30.13 in 10.0 mi Calm Calm - N/A   Clear
1:47 AM 44.1 °F 36.0 °F 73% 30.14 in 10.0 mi Calm Calm - N/A   Clear
2:47 AM 44.1 °F 35.1 °F 71% 30.14 in 10.0 mi Calm Calm - N/A   Clear
3:47 AM 43.0 °F 33.1 °F 68% 30.14 in 10.0 mi Calm Calm - N/A   Clear
4:47 AM 45.0 °F 30.0 °F 56% 30.12 in 10.0 mi Calm Calm - N/A   Clear
5:47 AM 43.0 °F 30.9 °F 62% 30.12 in 10.0 mi Calm Calm - N/A   Clear
6:47 AM 42.1 °F 32.0 °F 67% 30.13 in 10.0 mi Calm Calm - N/A   Clear
7:47 AM 46.0 °F 33.1 °F 61% 30.15 in 9.0 mi Calm Calm - N/A   Clear
8:47 AM 57.0 °F 30.0 °F 36% 30.17 in 10.0 mi Calm Calm - N/A   Clear
9:47 AM 66.0 °F 21.9 °F 19% 30.17 in 10.0 mi Calm Calm - N/A   Clear
10:47 AM 70.0 °F 17.1 °F 13% 30.14 in 10.0 mi Calm Calm - N/A   Clear
11:47 AM 73.0 °F 19.0 °F 13% 30.11 in 10.0 mi Calm Calm - N/A   Clear
12:47 PM 75.0 °F 14.0 °F 10% 30.07 in 10.0 mi Calm Calm - N/A   Clear
1:47 PM 75.9 °F 17.1 °F 11% 30.05 in 10.0 mi Calm Calm - N/A   Clear
2:47 PM 77.0 °F 21.0 °F 12% 30.04 in 10.0 mi Calm Calm - N/A   Clear
3:47 PM 75.0 °F 16.0 °F 11% 30.06 in 10.0 mi West 4.6 mph - N/A   Clear
4:47 PM 70.0 °F 14.0 °F 12% 30.07 in 10.0 mi WNW 3.5 mph - N/A   Clear
5:47 PM 64.9 °F 17.1 °F 16% 30.09 in 10.0 mi Calm Calm - N/A   Clear
6:47 PM 61.0 °F 19.9 °F 21% 30.11 in 10.0 mi Calm Calm - N/A   Clear
7:47 PM 57.0 °F 26.1 °F 30% 30.11 in 10.0 mi Calm Calm - N/A   Clear
8:47 PM 55.9 °F 27.0 °F 33% 30.12 in 10.0 mi Calm Calm - N/A   Clear
9:47 PM 55.9 °F 27.0 °F 33% 30.12 in 10.0 mi Calm Calm - N/A   Clear
10:47 PM 55.9 °F 21.0 °F 26% 30.12 in 10.0 mi Calm Calm - N/A   Clear
11:47 PM 53.1 °F 24.1 °F 32% 30.13 in 10.0 mi NNE 4.6 mph - N/A   Clear